Year,Month,Day,Hour,Minute,Value (Times are PST for windspeed in km/hr)
2008,10,05,00,00,8.30
2008,10,05,00,01,8.00
2008,10,05,00,02,8.70
2008,10,05,00,03,7.70
2008,10,05,00,04,7.20
2008,10,05,00,05,9.50
2008,10,05,00,06,7.70
2008,10,05,00,07,2.50
2008,10,05,00,08,10.20
2008,10,05,00,09,7.60
2008,10,05,00,10,8.20
2008,10,05,00,11,9.00
2008,10,05,00,12,6.40
2008,10,05,00,13,8.20
2008,10,05,00,14,6.20
2008,10,05,00,15,4.10
2008,10,05,00,16,7.40
2008,10,05,00,17,6.30
2008,10,05,00,18,2.70
2008,10,05,00,19,3.90
2008,10,05,00,20,4.00
2008,10,05,00,21,2.50
2008,10,05,00,22,1.40
2008,10,05,00,23,0.40
2008,10,05,00,24,5.40
2008,10,05,00,25,0.40
2008,10,05,00,26,1.60
2008,10,05,00,27,4.50
2008,10,05,00,28,1.40
2008,10,05,00,29,1.10
2008,10,05,00,30,1.40
2008,10,05,00,31,6.90
2008,10,05,00,32,1.10
2008,10,05,00,33,1.70
2008,10,05,00,34,3.30
2008,10,05,00,35,0.00
2008,10,05,00,36,0.00
2008,10,05,00,37,1.00
2008,10,05,00,38,1.20
2008,10,05,00,39,3.50
2008,10,05,00,40,1.20
2008,10,05,00,41,1.00
2008,10,05,00,42,1.20
2008,10,05,00,43,0.00
2008,10,05,00,44,0.90
2008,10,05,00,45,3.80
2008,10,05,00,46,1.60
2008,10,05,00,47,0.00
2008,10,05,00,48,0.40
2008,10,05,00,49,0.00
2008,10,05,00,50,0.70
2008,10,05,00,51,0.90
2008,10,05,00,52,0.00
2008,10,05,00,53,3.90
2008,10,05,00,54,0.90
2008,10,05,00,55,0.90
2008,10,05,00,56,2.40
2008,10,05,00,57,0.50
2008,10,05,00,58,0.30
2008,10,05,00,59,0.20
2008,10,05,01,00,3.20
2008,10,05,01,01,2.30
2008,10,05,01,02,4.10
2008,10,05,01,03,4.20
2008,10,05,01,04,2.40
2008,10,05,01,05,2.90
2008,10,05,01,06,2.70
2008,10,05,01,07,2.50
2008,10,05,01,08,2.10
2008,10,05,01,09,1.70
2008,10,05,01,10,2.30
2008,10,05,01,11,5.60
2008,10,05,01,12,4.00
2008,10,05,01,13,2.40
2008,10,05,01,14,3.10
2008,10,05,01,15,4.20
2008,10,05,01,16,3.40
2008,10,05,01,17,1.40
2008,10,05,01,18,3.60
2008,10,05,01,19,1.40
2008,10,05,01,20,3.50
2008,10,05,01,21,1.20
2008,10,05,01,22,4.80
2008,10,05,01,23,4.10
2008,10,05,01,24,4.70
2008,10,05,01,25,5.10
2008,10,05,01,26,8.50
2008,10,05,01,27,2.00
2008,10,05,01,28,6.20
2008,10,05,01,29,5.10
2008,10,05,01,30,7.50
2008,10,05,01,31,2.80
2008,10,05,01,32,2.60
2008,10,05,01,33,4.50
2008,10,05,01,34,3.80
2008,10,05,01,35,9.50
2008,10,05,01,36,8.40
2008,10,05,01,37,10.00
2008,10,05,01,38,7.00
2008,10,05,01,39,5.30
2008,10,05,01,40,9.30
2008,10,05,01,41,7.20
2008,10,05,01,42,12.60
2008,10,05,01,43,7.10
2008,10,05,01,44,11.90
2008,10,05,01,45,8.80
2008,10,05,01,46,11.20
2008,10,05,01,47,10.40
2008,10,05,01,48,10.90
2008,10,05,01,49,12.00
2008,10,05,01,50,11.80
2008,10,05,01,51,14.00
2008,10,05,01,52,11.90
2008,10,05,01,53,8.70
2008,10,05,01,54,9.70
2008,10,05,01,55,8.30
2008,10,05,01,56,8.50
2008,10,05,01,57,8.10
2008,10,05,01,58,8.90
2008,10,05,01,59,8.50
2008,10,05,02,00,11.70
2008,10,05,02,01,6.90
2008,10,05,02,02,7.10
2008,10,05,02,03,6.60
2008,10,05,02,04,8.80
2008,10,05,02,05,6.30
2008,10,05,02,06,7.40
2008,10,05,02,07,6.50
2008,10,05,02,08,5.70
2008,10,05,02,09,5.80
2008,10,05,02,10,4.90
2008,10,05,02,11,3.20
2008,10,05,02,12,5.70
2008,10,05,02,13,6.20
2008,10,05,02,14,8.50
2008,10,05,02,15,9.60
2008,10,05,02,16,5.50
2008,10,05,02,17,6.20
2008,10,05,02,18,3.80
2008,10,05,02,19,7.20
2008,10,05,02,20,6.60
2008,10,05,02,21,8.90
2008,10,05,02,22,6.40
2008,10,05,02,23,3.90
2008,10,05,02,24,5.60
2008,10,05,02,25,5.70
2008,10,05,02,26,5.40
2008,10,05,02,27,2.40
2008,10,05,02,28,7.50
2008,10,05,02,29,6.70
2008,10,05,02,30,6.40
2008,10,05,02,31,9.50
2008,10,05,02,32,8.30
2008,10,05,02,33,11.50
2008,10,05,02,34,10.70
2008,10,05,02,35,8.90
2008,10,05,02,36,8.50
2008,10,05,02,37,9.90
2008,10,05,02,38,10.40
2008,10,05,02,39,10.30
2008,10,05,02,40,9.60
2008,10,05,02,41,11.70
2008,10,05,02,42,12.50
2008,10,05,02,43,8.10
2008,10,05,02,44,9.60
2008,10,05,02,45,8.40
2008,10,05,02,46,7.30
2008,10,05,02,47,7.40
2008,10,05,02,48,12.30
2008,10,05,02,49,8.40
2008,10,05,02,50,7.00
2008,10,05,02,51,9.50
2008,10,05,02,52,7.50
2008,10,05,02,53,5.20
2008,10,05,02,54,8.10
2008,10,05,02,55,8.90
2008,10,05,02,56,5.60
2008,10,05,02,57,8.00
2008,10,05,02,58,7.30
2008,10,05,02,59,2.50
2008,10,05,03,00,5.30
2008,10,05,03,01,7.50
2008,10,05,03,02,4.60
2008,10,05,03,03,8.00
2008,10,05,03,04,7.00
2008,10,05,03,05,4.70
2008,10,05,03,06,8.20
2008,10,05,03,07,5.50
2008,10,05,03,08,3.50
2008,10,05,03,09,6.30
2008,10,05,03,10,4.70
2008,10,05,03,11,1.00
2008,10,05,03,12,1.20
2008,10,05,03,13,1.10
2008,10,05,03,14,2.10
2008,10,05,03,15,1.10
2008,10,05,03,16,4.10
2008,10,05,03,17,0.40
2008,10,05,03,18,1.50
2008,10,05,03,19,0.90
2008,10,05,03,20,2.30
2008,10,05,03,21,1.90
2008,10,05,03,22,2.50
2008,10,05,03,23,2.90
2008,10,05,03,24,3.40
2008,10,05,03,25,2.90
2008,10,05,03,26,1.60
2008,10,05,03,27,1.20
2008,10,05,03,28,1.40
2008,10,05,03,29,2.80
2008,10,05,03,30,1.00
2008,10,05,03,31,0.90
2008,10,05,03,32,0.30
2008,10,05,03,33,2.60
2008,10,05,03,34,0.90
2008,10,05,03,35,0.80
2008,10,05,03,36,1.10
2008,10,05,03,37,0.60
2008,10,05,03,38,1.90
2008,10,05,03,39,1.10
2008,10,05,03,40,1.40
2008,10,05,03,41,1.80
2008,10,05,03,42,0.10
2008,10,05,03,43,0.60
2008,10,05,03,44,0.20
2008,10,05,03,45,0.80
2008,10,05,03,46,0.60
2008,10,05,03,47,0.20
2008,10,05,03,48,0.90
2008,10,05,03,49,1.70
2008,10,05,03,50,0.20
2008,10,05,03,51,0.50
2008,10,05,03,52,1.50
2008,10,05,03,53,1.00
2008,10,05,03,54,0.90
2008,10,05,03,55,0.10
2008,10,05,03,56,0.40
2008,10,05,03,57,0.70
2008,10,05,03,58,1.10
2008,10,05,03,59,0.10
2008,10,05,04,00,2.00
2008,10,05,04,01,0.40
2008,10,05,04,02,1.60
2008,10,05,04,03,0.40
2008,10,05,04,04,1.60
2008,10,05,04,05,2.20
2008,10,05,04,06,0.00
2008,10,05,04,07,0.10
2008,10,05,04,08,1.60
2008,10,05,04,09,0.20
2008,10,05,04,10,0.50
2008,10,05,04,11,1.00
2008,10,05,04,12,0.60
2008,10,05,04,13,2.40
2008,10,05,04,14,0.70
2008,10,05,04,15,0.90
2008,10,05,04,16,1.40
2008,10,05,04,17,0.70
2008,10,05,04,18,0.00
2008,10,05,04,19,0.00
2008,10,05,04,20,0.70
2008,10,05,04,21,0.00
2008,10,05,04,22,0.30
2008,10,05,04,23,0.70
2008,10,05,04,24,0.00
2008,10,05,04,25,0.80
2008,10,05,04,26,0.30
2008,10,05,04,27,0.00
2008,10,05,04,28,0.50
2008,10,05,04,29,0.30
2008,10,05,04,30,0.90
2008,10,05,04,31,0.20
2008,10,05,04,32,0.00
2008,10,05,04,33,0.10
2008,10,05,04,34,0.20
2008,10,05,04,35,1.00
2008,10,05,04,36,0.30
2008,10,05,04,37,0.00
2008,10,05,04,38,1.60
2008,10,05,04,39,0.30
2008,10,05,04,40,0.00
2008,10,05,04,41,0.20
2008,10,05,04,42,0.00
2008,10,05,04,43,0.00
2008,10,05,04,44,0.00
2008,10,05,04,45,0.00
2008,10,05,04,46,0.00
2008,10,05,04,47,0.80
2008,10,05,04,48,0.30
2008,10,05,04,49,0.00
2008,10,05,04,50,0.10
2008,10,05,04,51,0.50
2008,10,05,04,52,0.50
2008,10,05,04,53,0.10
2008,10,05,04,54,0.40
2008,10,05,04,55,0.40
2008,10,05,04,56,2.20
2008,10,05,04,57,2.20
2008,10,05,04,58,0.60
2008,10,05,04,59,2.30
2008,10,05,05,00,2.60
2008,10,05,05,01,2.30
2008,10,05,05,02,1.50
2008,10,05,05,03,1.40
2008,10,05,05,04,2.50
2008,10,05,05,05,1.40
2008,10,05,05,06,1.60
2008,10,05,05,07,0.50
2008,10,05,05,08,2.80
2008,10,05,05,09,1.50
2008,10,05,05,10,2.30
2008,10,05,05,11,3.20
2008,10,05,05,12,3.20
2008,10,05,05,13,1.40
2008,10,05,05,14,0.80
2008,10,05,05,15,1.90
2008,10,05,05,16,1.60
2008,10,05,05,17,2.20
2008,10,05,05,18,2.50
2008,10,05,05,19,0.60
2008,10,05,05,20,0.90
2008,10,05,05,21,0.80
2008,10,05,05,22,0.10
2008,10,05,05,23,0.00
2008,10,05,05,24,1.20
2008,10,05,05,25,0.10
2008,10,05,05,26,0.10
2008,10,05,05,27,0.40
2008,10,05,05,28,0.00
2008,10,05,05,29,0.00
2008,10,05,05,30,1.10
2008,10,05,05,31,0.00
2008,10,05,05,32,0.20
2008,10,05,05,33,0.50
2008,10,05,05,34,0.10
2008,10,05,05,35,1.20
2008,10,05,05,36,1.00
2008,10,05,05,37,1.00
2008,10,05,05,38,1.50
2008,10,05,05,39,1.50
2008,10,05,05,40,0.70
2008,10,05,05,41,1.00
2008,10,05,05,42,1.00
2008,10,05,05,43,0.70
2008,10,05,05,44,2.90
2008,10,05,05,45,2.80
2008,10,05,05,46,4.10
2008,10,05,05,47,3.20
2008,10,05,05,48,4.20
2008,10,05,05,49,3.40
2008,10,05,05,50,2.60
2008,10,05,05,51,0.70
2008,10,05,05,52,1.40
2008,10,05,05,53,1.20
2008,10,05,05,54,0.40
2008,10,05,05,55,0.10
2008,10,05,05,56,0.90
2008,10,05,05,57,0.20
2008,10,05,05,58,0.60
2008,10,05,05,59,1.20
2008,10,05,06,00,0.10
2008,10,05,06,01,0.80
2008,10,05,06,02,0.00
2008,10,05,06,03,0.70
2008,10,05,06,04,0.00
2008,10,05,06,05,0.00
2008,10,05,06,06,0.10
2008,10,05,06,07,0.80
2008,10,05,06,08,0.60
2008,10,05,06,09,2.20
2008,10,05,06,10,0.40
2008,10,05,06,11,1.00
2008,10,05,06,12,0.30
2008,10,05,06,13,1.70
2008,10,05,06,14,1.80
2008,10,05,06,15,0.70
2008,10,05,06,16,1.40
2008,10,05,06,17,0.40
2008,10,05,06,18,1.90
2008,10,05,06,19,1.80
2008,10,05,06,20,4.60
2008,10,05,06,21,4.40
2008,10,05,06,22,1.80
2008,10,05,06,23,1.00
2008,10,05,06,24,1.80
2008,10,05,06,25,1.30
2008,10,05,06,26,1.30
2008,10,05,06,27,2.90
2008,10,05,06,28,0.60
2008,10,05,06,29,2.40
2008,10,05,06,30,0.90
2008,10,05,06,31,1.90
2008,10,05,06,32,2.00
2008,10,05,06,33,2.20
2008,10,05,06,34,0.50
2008,10,05,06,35,0.40
2008,10,05,06,36,0.90
2008,10,05,06,37,0.10
2008,10,05,06,38,1.50
2008,10,05,06,39,1.40
2008,10,05,06,40,0.30
2008,10,05,06,41,0.40
2008,10,05,06,42,0.50
2008,10,05,06,43,0.00
2008,10,05,06,44,0.00
2008,10,05,06,45,0.00
2008,10,05,06,46,0.50
2008,10,05,06,47,0.20
2008,10,05,06,48,1.20
2008,10,05,06,49,0.10
2008,10,05,06,50,0.00
2008,10,05,06,51,0.00
2008,10,05,06,52,0.10
2008,10,05,06,53,1.00
2008,10,05,06,54,4.10
2008,10,05,06,55,6.70
2008,10,05,06,56,3.80
2008,10,05,06,57,1.10
2008,10,05,06,58,1.30
2008,10,05,06,59,0.40
2008,10,05,07,00,3.50
2008,10,05,07,01,2.60
2008,10,05,07,02,0.40
2008,10,05,07,03,1.40
2008,10,05,07,04,4.30
2008,10,05,07,05,4.50
2008,10,05,07,06,2.50
2008,10,05,07,07,1.80
2008,10,05,07,08,3.40
2008,10,05,07,09,4.40
2008,10,05,07,10,4.20
2008,10,05,07,11,4.90
2008,10,05,07,12,5.00
2008,10,05,07,13,5.60
2008,10,05,07,14,4.20
2008,10,05,07,15,2.80
2008,10,05,07,16,6.40
2008,10,05,07,17,5.40
2008,10,05,07,18,6.30
2008,10,05,07,19,6.20
2008,10,05,07,20,6.80
2008,10,05,07,21,5.60
2008,10,05,07,22,6.60
2008,10,05,07,23,3.50
2008,10,05,07,24,5.00
2008,10,05,07,25,4.40
2008,10,05,07,26,6.60
2008,10,05,07,27,5.50
2008,10,05,07,28,4.10
2008,10,05,07,29,5.30
2008,10,05,07,30,4.90
2008,10,05,07,31,8.00
2008,10,05,07,32,7.80
2008,10,05,07,33,4.10
2008,10,05,07,34,7.20
2008,10,05,07,35,4.30
2008,10,05,07,36,8.90
2008,10,05,07,37,4.70
2008,10,05,07,38,3.80
2008,10,05,07,39,8.40
2008,10,05,07,40,2.50
2008,10,05,07,41,5.00
2008,10,05,07,42,5.50
2008,10,05,07,43,6.80
2008,10,05,07,44,5.10
2008,10,05,07,45,5.00
2008,10,05,07,46,2.90
2008,10,05,07,47,3.00
2008,10,05,07,48,4.10
2008,10,05,07,49,4.60
2008,10,05,07,50,3.50
2008,10,05,07,51,4.40
2008,10,05,07,52,2.80
2008,10,05,07,53,2.80
2008,10,05,07,54,1.30
2008,10,05,07,55,0.30
2008,10,05,07,56,0.40
2008,10,05,07,57,3.20
2008,10,05,07,58,0.30
2008,10,05,07,59,1.40
2008,10,05,08,00,1.30
2008,10,05,08,01,2.90
2008,10,05,08,02,1.40
2008,10,05,08,03,3.00
2008,10,05,08,04,0.40
2008,10,05,08,05,1.10
2008,10,05,08,06,1.10
2008,10,05,08,07,2.70
2008,10,05,08,08,2.70
2008,10,05,08,09,2.40
2008,10,05,08,10,4.30
2008,10,05,08,11,4.50
2008,10,05,08,12,2.60
2008,10,05,08,13,1.40
2008,10,05,08,14,3.10
2008,10,05,08,15,1.50
2008,10,05,08,16,0.90
2008,10,05,08,17,2.30
2008,10,05,08,18,0.30
2008,10,05,08,19,0.90
2008,10,05,08,20,2.80
2008,10,05,08,21,2.10
2008,10,05,08,22,1.60
2008,10,05,08,23,1.90
2008,10,05,08,24,2.80
2008,10,05,08,25,1.00
2008,10,05,08,26,0.60
2008,10,05,08,27,0.80
2008,10,05,08,28,3.20
2008,10,05,08,29,1.50
2008,10,05,08,30,0.20
2008,10,05,08,31,1.80
2008,10,05,08,32,0.50
2008,10,05,08,33,1.90
2008,10,05,08,34,1.30
2008,10,05,08,35,0.90
2008,10,05,08,36,0.40
2008,10,05,08,37,1.20
2008,10,05,08,38,0.60
2008,10,05,08,39,1.30
2008,10,05,08,40,1.10
2008,10,05,08,41,1.00
2008,10,05,08,42,0.70
2008,10,05,08,43,0.00
2008,10,05,08,44,2.20
2008,10,05,08,45,0.40
2008,10,05,08,46,2.00
2008,10,05,08,47,1.80
2008,10,05,08,48,0.60
2008,10,05,08,49,0.10
2008,10,05,08,50,0.00
2008,10,05,08,51,0.40
2008,10,05,08,52,0.00
2008,10,05,08,53,0.00
2008,10,05,08,54,0.00
2008,10,05,08,55,0.00
2008,10,05,08,56,0.00
2008,10,05,08,57,0.00
2008,10,05,08,58,0.00
2008,10,05,08,59,0.00
2008,10,05,09,00,0.00
2008,10,05,09,01,0.00
2008,10,05,09,02,0.00
2008,10,05,09,03,0.00
2008,10,05,09,04,0.00
2008,10,05,09,05,0.00
2008,10,05,09,06,0.00
2008,10,05,09,07,0.00
2008,10,05,09,08,0.00
2008,10,05,09,09,0.00
2008,10,05,09,10,0.00
2008,10,05,09,11,0.00
2008,10,05,09,12,0.00
2008,10,05,09,13,0.00
2008,10,05,09,14,0.00
2008,10,05,09,15,0.00
2008,10,05,09,16,0.00
2008,10,05,09,17,0.00
2008,10,05,09,18,0.00
2008,10,05,09,19,0.00
2008,10,05,09,20,0.00
2008,10,05,09,21,0.00
2008,10,05,09,22,0.00
2008,10,05,09,23,0.10
2008,10,05,09,24,0.50
2008,10,05,09,25,0.50
2008,10,05,09,26,1.70
2008,10,05,09,27,1.70
2008,10,05,09,28,0.00
2008,10,05,09,29,0.60
2008,10,05,09,30,2.90
2008,10,05,09,31,1.20
2008,10,05,09,32,0.20
2008,10,05,09,33,2.30
2008,10,05,09,34,2.40
2008,10,05,09,35,2.00
2008,10,05,09,36,2.60
2008,10,05,09,37,2.80
2008,10,05,09,38,1.60
2008,10,05,09,39,1.10
2008,10,05,09,40,1.10
2008,10,05,09,41,0.20
2008,10,05,09,42,2.00
2008,10,05,09,43,0.60
2008,10,05,09,44,2.00
2008,10,05,09,45,1.80
2008,10,05,09,46,1.00
2008,10,05,09,47,0.20
2008,10,05,09,48,0.00
2008,10,05,09,49,1.00
2008,10,05,09,50,0.90
2008,10,05,09,51,0.50
2008,10,05,09,52,0.60
2008,10,05,09,53,3.30
2008,10,05,09,54,3.40
2008,10,05,09,55,1.50
2008,10,05,09,56,2.20
2008,10,05,09,57,2.60
2008,10,05,09,58,1.30
2008,10,05,09,59,4.50
2008,10,05,10,00,2.00
2008,10,05,10,01,1.60
2008,10,05,10,02,1.50
2008,10,05,10,03,4.90
2008,10,05,10,04,4.50
2008,10,05,10,05,3.80
2008,10,05,10,06,4.70
2008,10,05,10,07,2.00
2008,10,05,10,08,4.00
2008,10,05,10,09,3.20
2008,10,05,10,10,2.60
2008,10,05,10,11,2.80
2008,10,05,10,12,3.10
2008,10,05,10,13,1.60
2008,10,05,10,14,1.90
2008,10,05,10,15,1.00
2008,10,05,10,16,4.40
2008,10,05,10,17,4.00
2008,10,05,10,18,1.90
2008,10,05,10,19,4.10
2008,10,05,10,20,2.50
2008,10,05,10,21,1.90
2008,10,05,10,22,1.70
2008,10,05,10,23,5.60
2008,10,05,10,24,5.10
2008,10,05,10,25,2.00
2008,10,05,10,26,6.20
2008,10,05,10,27,7.10
2008,10,05,10,28,4.50
2008,10,05,10,29,6.00
2008,10,05,10,30,2.80
2008,10,05,10,31,3.20
2008,10,05,10,32,2.10
2008,10,05,10,33,1.10
2008,10,05,10,34,2.20
2008,10,05,10,35,5.20
2008,10,05,10,36,6.20
2008,10,05,10,37,2.50
2008,10,05,10,38,4.20
2008,10,05,10,39,5.70
2008,10,05,10,40,7.00
2008,10,05,10,41,6.90
2008,10,05,10,42,7.80
2008,10,05,10,43,5.00
2008,10,05,10,44,3.00
2008,10,05,10,45,5.20
2008,10,05,10,46,5.50
2008,10,05,10,47,3.70
2008,10,05,10,48,5.50
2008,10,05,10,49,1.70
2008,10,05,10,50,2.20
2008,10,05,10,51,3.20
2008,10,05,10,52,3.50
2008,10,05,10,53,3.80
2008,10,05,10,54,2.40
2008,10,05,10,55,4.80
2008,10,05,10,56,2.50
2008,10,05,10,57,3.70
2008,10,05,10,58,2.50
2008,10,05,10,59,2.60
2008,10,05,11,00,3.40
2008,10,05,11,01,5.10
2008,10,05,11,02,3.00
2008,10,05,11,03,2.20
2008,10,05,11,04,0.60
2008,10,05,11,05,0.20
2008,10,05,11,06,1.90
2008,10,05,11,07,2.50
2008,10,05,11,08,3.60
2008,10,05,11,09,3.90
2008,10,05,11,10,2.70
2008,10,05,11,11,2.80
2008,10,05,11,12,2.50
2008,10,05,11,13,2.70
2008,10,05,11,14,2.60
2008,10,05,11,15,1.40
2008,10,05,11,16,3.90
2008,10,05,11,17,0.70
2008,10,05,11,18,0.20
2008,10,05,11,19,0.90
2008,10,05,11,20,1.90
2008,10,05,11,21,0.70
2008,10,05,11,22,1.10
2008,10,05,11,23,0.90
2008,10,05,11,24,3.40
2008,10,05,11,25,3.10
2008,10,05,11,26,3.60
2008,10,05,11,27,5.00
2008,10,05,11,28,2.60
2008,10,05,11,29,6.20
2008,10,05,11,30,5.40
2008,10,05,11,31,3.60
2008,10,05,11,32,6.60
2008,10,05,11,33,3.30
2008,10,05,11,34,3.30
2008,10,05,11,35,2.70
2008,10,05,11,36,2.90
2008,10,05,11,37,1.70
2008,10,05,11,38,4.40
2008,10,05,11,39,4.90
2008,10,05,11,40,5.70
2008,10,05,11,41,3.30
2008,10,05,11,42,4.30
2008,10,05,11,43,3.80
2008,10,05,11,44,6.00
2008,10,05,11,45,2.10
2008,10,05,11,46,5.40
2008,10,05,11,47,3.90
2008,10,05,11,48,2.50
2008,10,05,11,49,3.50
2008,10,05,11,50,1.00
2008,10,05,11,51,2.70
2008,10,05,11,52,1.90
2008,10,05,11,53,1.30
2008,10,05,11,54,2.30
2008,10,05,11,55,1.00
2008,10,05,11,56,3.30
2008,10,05,11,57,4.70
2008,10,05,11,58,3.90
2008,10,05,11,59,8.10
2008,10,05,12,00,3.20
2008,10,05,12,01,0.80
2008,10,05,12,02,1.60
2008,10,05,12,03,5.00
2008,10,05,12,04,4.60
2008,10,05,12,05,1.90
2008,10,05,12,06,4.40
2008,10,05,12,07,4.60
2008,10,05,12,08,2.50
2008,10,05,12,09,1.40
2008,10,05,12,10,1.10
2008,10,05,12,11,3.30
2008,10,05,12,12,6.00
2008,10,05,12,13,4.60
2008,10,05,12,14,3.10
2008,10,05,12,15,5.80
2008,10,05,12,16,4.60
2008,10,05,12,17,6.40
2008,10,05,12,18,6.00
2008,10,05,12,19,5.40
2008,10,05,12,20,2.50
2008,10,05,12,21,2.80
2008,10,05,12,22,4.50
2008,10,05,12,23,3.90
2008,10,05,12,24,8.50
2008,10,05,12,25,4.50
2008,10,05,12,26,7.40
2008,10,05,12,27,3.40
2008,10,05,12,28,3.50
2008,10,05,12,29,2.80
2008,10,05,12,30,5.80
2008,10,05,12,31,6.30
2008,10,05,12,32,5.10
2008,10,05,12,33,3.10
2008,10,05,12,34,3.20
2008,10,05,12,35,5.10
2008,10,05,12,36,0.90
2008,10,05,12,37,4.00
2008,10,05,12,38,2.50
2008,10,05,12,39,2.60
2008,10,05,12,40,3.10
2008,10,05,12,41,2.70
2008,10,05,12,42,2.20
2008,10,05,12,43,4.10
2008,10,05,12,44,4.40
2008,10,05,12,45,1.40
2008,10,05,12,46,3.20
2008,10,05,12,47,6.20
2008,10,05,12,48,3.10
2008,10,05,12,49,1.50
2008,10,05,12,50,2.10
2008,10,05,12,51,2.30
2008,10,05,12,52,5.90
2008,10,05,12,53,2.00
2008,10,05,12,54,3.70
2008,10,05,12,55,6.60
2008,10,05,12,56,8.70
2008,10,05,12,57,7.70
2008,10,05,12,58,5.90
2008,10,05,12,59,6.00
2008,10,05,13,00,4.30
2008,10,05,13,01,4.30
2008,10,05,13,02,5.00
2008,10,05,13,03,4.50
2008,10,05,13,04,3.50
2008,10,05,13,05,2.40
2008,10,05,13,06,5.00
2008,10,05,13,07,3.70
2008,10,05,13,08,3.10
2008,10,05,13,09,2.60
2008,10,05,13,10,3.80
2008,10,05,13,11,1.30
2008,10,05,13,12,1.60
2008,10,05,13,13,3.60
2008,10,05,13,14,3.20
2008,10,05,13,15,0.60
2008,10,05,13,16,3.90
2008,10,05,13,17,4.00
2008,10,05,13,18,2.60
2008,10,05,13,19,3.90
2008,10,05,13,20,4.50
2008,10,05,13,21,2.10
2008,10,05,13,22,2.60
2008,10,05,13,23,3.90
2008,10,05,13,24,2.90
2008,10,05,13,25,0.40
2008,10,05,13,26,1.20
2008,10,05,13,27,4.50
2008,10,05,13,28,7.10
2008,10,05,13,29,3.90
2008,10,05,13,30,2.60
2008,10,05,13,31,0.70
2008,10,05,13,32,0.30
2008,10,05,13,33,4.30
2008,10,05,13,34,6.00
2008,10,05,13,35,2.20
2008,10,05,13,36,2.30
2008,10,05,13,37,3.90
2008,10,05,13,38,4.00
2008,10,05,13,39,5.30
2008,10,05,13,40,6.50
2008,10,05,13,41,2.30
2008,10,05,13,42,4.50
2008,10,05,13,43,7.00
2008,10,05,13,44,4.80
2008,10,05,13,45,4.10
2008,10,05,13,46,2.80
2008,10,05,13,47,0.00
2008,10,05,13,48,0.50
2008,10,05,13,49,4.90
2008,10,05,13,50,6.50
2008,10,05,13,51,8.40
2008,10,05,13,52,5.70
2008,10,05,13,53,2.60
2008,10,05,13,54,4.10
2008,10,05,13,55,1.40
2008,10,05,13,56,5.40
2008,10,05,13,57,5.20
2008,10,05,13,58,3.70
2008,10,05,13,59,2.30
2008,10,05,14,00,3.40
2008,10,05,14,01,3.90
2008,10,05,14,02,3.80
2008,10,05,14,03,0.60
2008,10,05,14,04,4.20
2008,10,05,14,05,3.00
2008,10,05,14,06,1.50
2008,10,05,14,07,2.30
2008,10,05,14,08,1.20
2008,10,05,14,09,3.10
2008,10,05,14,10,4.20
2008,10,05,14,11,1.30
2008,10,05,14,12,3.00
2008,10,05,14,13,2.00
2008,10,05,14,14,5.90
2008,10,05,14,15,5.00
2008,10,05,14,16,3.70
2008,10,05,14,17,5.60
2008,10,05,14,18,3.60
2008,10,05,14,19,5.70
2008,10,05,14,20,6.10
2008,10,05,14,21,4.60
2008,10,05,14,22,6.10
2008,10,05,14,23,7.60
2008,10,05,14,24,5.80
2008,10,05,14,25,4.30
2008,10,05,14,26,4.60
2008,10,05,14,27,1.20
2008,10,05,14,28,4.20
2008,10,05,14,29,4.80
2008,10,05,14,30,4.40
2008,10,05,14,31,3.40
2008,10,05,14,32,2.10
2008,10,05,14,33,4.40
2008,10,05,14,34,1.40
2008,10,05,14,35,3.40
2008,10,05,14,36,2.80
2008,10,05,14,37,2.70
2008,10,05,14,38,4.00
2008,10,05,14,39,3.80
2008,10,05,14,40,2.50
2008,10,05,14,41,1.30
2008,10,05,14,42,2.10
2008,10,05,14,43,1.30
2008,10,05,14,44,6.20
2008,10,05,14,45,4.80
2008,10,05,14,46,1.00
2008,10,05,14,47,3.80
2008,10,05,14,48,6.60
2008,10,05,14,49,6.80
2008,10,05,14,50,3.50
2008,10,05,14,51,7.10
2008,10,05,14,52,7.50
2008,10,05,14,53,5.20
2008,10,05,14,54,4.20
2008,10,05,14,55,1.20
2008,10,05,14,56,2.20
2008,10,05,14,57,3.80
2008,10,05,14,58,6.90
2008,10,05,14,59,0.70
2008,10,05,15,00,1.50
2008,10,05,15,01,1.20
2008,10,05,15,02,3.40
2008,10,05,15,03,2.60
2008,10,05,15,04,1.10
2008,10,05,15,05,2.40
2008,10,05,15,06,2.60
2008,10,05,15,07,5.70
2008,10,05,15,08,2.00
2008,10,05,15,09,2.70
2008,10,05,15,10,2.30
2008,10,05,15,11,2.00
2008,10,05,15,12,4.30
2008,10,05,15,13,2.60
2008,10,05,15,14,2.10
2008,10,05,15,15,1.40
2008,10,05,15,16,2.70
2008,10,05,15,17,1.70
2008,10,05,15,18,5.10
2008,10,05,15,19,1.40
2008,10,05,15,20,2.00
2008,10,05,15,21,1.80
2008,10,05,15,22,6.30
2008,10,05,15,23,2.40
2008,10,05,15,24,4.30
2008,10,05,15,25,2.60
2008,10,05,15,26,5.30
2008,10,05,15,27,4.80
2008,10,05,15,28,3.60
2008,10,05,15,29,2.10
2008,10,05,15,30,0.70
2008,10,05,15,31,1.90
2008,10,05,15,32,1.50
2008,10,05,15,33,3.70
2008,10,05,15,34,2.70
2008,10,05,15,35,2.60
2008,10,05,15,36,3.80
2008,10,05,15,37,4.00
2008,10,05,15,38,3.80
2008,10,05,15,39,2.30
2008,10,05,15,40,2.20
2008,10,05,15,41,3.50
2008,10,05,15,42,4.40
2008,10,05,15,43,5.90
2008,10,05,15,44,2.20
2008,10,05,15,45,2.70
2008,10,05,15,46,4.30
2008,10,05,15,47,5.20
2008,10,05,15,48,1.90
2008,10,05,15,49,3.90
2008,10,05,15,50,3.80
2008,10,05,15,51,2.70
2008,10,05,15,52,3.10
2008,10,05,15,53,6.40
2008,10,05,15,54,4.80
2008,10,05,15,55,4.90
2008,10,05,15,56,3.60
2008,10,05,15,57,3.60
2008,10,05,15,58,6.60
2008,10,05,15,59,5.50
2008,10,05,16,00,4.10
2008,10,05,16,01,3.80
2008,10,05,16,02,3.50
2008,10,05,16,03,4.00
2008,10,05,16,04,5.80
2008,10,05,16,05,2.30
2008,10,05,16,06,3.80
2008,10,05,16,07,2.00
2008,10,05,16,08,6.00
2008,10,05,16,09,3.10
2008,10,05,16,10,4.80
2008,10,05,16,11,5.80
2008,10,05,16,12,6.40
2008,10,05,16,13,6.60
2008,10,05,16,14,4.00
2008,10,05,16,15,4.10
2008,10,05,16,16,3.50
2008,10,05,16,17,2.50
2008,10,05,16,18,3.30
2008,10,05,16,19,4.40
2008,10,05,16,20,0.10
2008,10,05,16,21,3.00
2008,10,05,16,22,1.20
2008,10,05,16,23,1.60
2008,10,05,16,24,2.10
2008,10,05,16,25,1.20
2008,10,05,16,26,1.30
2008,10,05,16,27,0.70
2008,10,05,16,28,1.60
2008,10,05,16,29,1.00
2008,10,05,16,30,1.00
2008,10,05,16,31,1.40
2008,10,05,16,32,1.00
2008,10,05,16,33,2.70
2008,10,05,16,34,2.30
2008,10,05,16,35,1.70
2008,10,05,16,36,1.20
2008,10,05,16,37,0.30
2008,10,05,16,38,3.00
2008,10,05,16,39,1.60
2008,10,05,16,40,1.10
2008,10,05,16,41,0.30
2008,10,05,16,42,0.10
2008,10,05,16,43,0.30
2008,10,05,16,44,1.80
2008,10,05,16,45,2.00
2008,10,05,16,46,1.10
2008,10,05,16,47,0.00
2008,10,05,16,48,0.10
2008,10,05,16,49,0.70
2008,10,05,16,50,0.00
2008,10,05,16,51,2.80
2008,10,05,16,52,0.90
2008,10,05,16,53,0.60
2008,10,05,16,54,0.90
2008,10,05,16,55,1.00
2008,10,05,16,56,0.70
2008,10,05,16,57,1.00
2008,10,05,16,58,0.60
2008,10,05,16,59,0.10
2008,10,05,17,00,0.90
2008,10,05,17,01,0.00
2008,10,05,17,02,0.10
2008,10,05,17,03,2.30
2008,10,05,17,04,0.30
2008,10,05,17,05,0.70
2008,10,05,17,06,0.90
2008,10,05,17,07,1.20
2008,10,05,17,08,0.20
2008,10,05,17,09,0.90
2008,10,05,17,10,0.40
2008,10,05,17,11,1.30
2008,10,05,17,12,0.20
2008,10,05,17,13,1.70
2008,10,05,17,14,0.40
2008,10,05,17,15,0.10
2008,10,05,17,16,1.50
2008,10,05,17,17,0.60
2008,10,05,17,18,0.80
2008,10,05,17,19,1.00
2008,10,05,17,20,0.40
2008,10,05,17,21,0.40
2008,10,05,17,22,0.20
2008,10,05,17,23,0.60
2008,10,05,17,24,0.30
2008,10,05,17,25,0.20
2008,10,05,17,26,0.60
2008,10,05,17,27,0.00
2008,10,05,17,28,0.00
2008,10,05,17,29,0.10
2008,10,05,17,30,0.10
2008,10,05,17,31,0.90
2008,10,05,17,32,0.00
2008,10,05,17,33,0.00
2008,10,05,17,34,2.80
2008,10,05,17,35,2.50
2008,10,05,17,36,1.00
2008,10,05,17,37,0.70
2008,10,05,17,38,0.10
2008,10,05,17,39,0.00
2008,10,05,17,40,0.30
2008,10,05,17,41,1.00
2008,10,05,17,42,0.20
2008,10,05,17,43,0.00
2008,10,05,17,44,0.00
2008,10,05,17,45,0.10
2008,10,05,17,46,0.10
2008,10,05,17,47,0.00
2008,10,05,17,48,0.00
2008,10,05,17,49,0.00
2008,10,05,17,50,0.00
2008,10,05,17,51,0.00
2008,10,05,17,52,0.00
2008,10,05,17,53,0.00
2008,10,05,17,54,0.00
2008,10,05,17,55,0.00
2008,10,05,17,56,0.00
2008,10,05,17,57,0.00
2008,10,05,17,58,0.00
2008,10,05,17,59,0.00
2008,10,05,18,00,0.70
2008,10,05,18,01,0.70
2008,10,05,18,02,0.00
2008,10,05,18,03,0.00
2008,10,05,18,04,0.00
2008,10,05,18,05,0.00